[[{"header":{"parameterUnit":"m.s-1","parameterCategory":1,"la1":30.2991,"la2":30.254,"lo1":-89.0895,"lo2":-89.0444,"dy":0.0017,"dx":0.0017,"nx":28,"ny":28,"refTime":"2026-02-09T03:00:00:Z","depth":0,"parameterNumber":2,"parameterNumberName":"U-component_of_WINDS"},"data":[0,0,0,0,0,0,0,0,0,0,0,0,0,0,0,0,0,0,0,0,0,0,0,0,0,0,0,0,0,0,0,0,0,0,0,0,0,0,0,0,0,0,0,0,0,0,0,0,0,0,0,0,0,0,0,0,0,0,-1.3551,-1.355,0,-1.354,-1.3539,-1.3539,-1.3451,-1.3449,-1.3446,-1.3444,-1.3434,-1.3435,-1.3437,0,0,0,0,0,0,0,0,0,0,0,0,0,-1.3496,-1.3498,-1.3551,-1.355,-1.355,-1.354,-1.3539,-1.3539,-1.3451,-1.3449,-1.3446,-1.3443,-1.3433,-1.3435,-1.3437,0,0,0,0,0,0,0,0,0,0,0,0,0,-1.3506,-1.3498,-1.3551,-1.3505,-1.3501,-1.354,-1.3539,-1.3539,-1.3452,-1.3449,-1.3445,-1.3442,-1.3432,-1.3435,-1.3438,-1.3519,0,0,-1.3446,-1.3447,0,0,0,0,0,0,0,0,-1.3505,-1.3508,-1.3512,-1.3508,-1.3504,-1.3493,-1.3516,-1.3533,-1.3453,-1.347,-1.3444,-1.3441,-1.3456,-1.3457,-1.3462,-1.3519,-1.3518,-1.3446,-1.3447,-1.3449,-1.3449,0,0,0,0,0,0,0,-1.3505,-1.3508,-1.3546,-1.3512,-1.3507,-1.3485,-1.3483,-1.3519,-1.3482,-1.3469,-1.3462,-1.3462,-1.3453,-1.3459,-1.3461,-1.3518,-1.3446,-1.3448,-1.345,-1.3451,-1.3641,-1.3645,0,0,0,0,0,0,-1.351,-1.3508,-1.3546,-1.3546,-1.3497,-1.3489,-1.3487,-1.35,-1.3481,-1.3475,-1.3465,-1.3458,-1.3457,-1.3458,-1.346,-1.3554,-1.3448,-1.3451,-1.3452,-1.3638,-1.3642,-1.3646,0,0,0,0,0,0,-1.351,-1.3515,-1.3547,-1.3525,-1.3528,-1.3493,-1.3509,-1.3501,-1.3507,-1.3478,-1.3471,-1.3478,-1.3454,-1.3456,-1.3505,-1.3552,-1.3452,-1.3455,-1.3634,-1.3639,-1.3644,-1.3742,0,0,0,0,0,0,-1.3508,-1.3515,-1.3545,-1.3527,-1.3529,-1.3592,-1.3512,-1.3504,-1.3512,-1.3503,-1.3489,-1.3483,-1.3452,-1.3502,-1.3508,-1.3554,-1.3457,-1.3629,-1.3636,-1.3642,-1.3735,-1.375,-1.3764,0,0,0,0,0,-1.3507,-1.3574,-1.3547,-1.3552,-1.3566,-1.3595,-1.3596,-1.3559,-1.3516,-1.3546,-1.3528,-1.3484,-1.3547,-1.3507,-1.3513,-1.3561,-1.3626,-1.3634,-1.3642,-1.3728,-1.3747,-1.3763,0,0,0,0,0,0,-1.3599,-1.357,-1.3541,-1.3603,-1.3602,-1.358,-1.3617,-1.358,-1.3591,-1.3582,-1.3535,-1.3532,-1.3588,-1.358,-1.3537,-1.3639,-1.3579,-1.3588,-1.3642,-1.366,-1.3674,-1.3674,-1.3459,0,0,0,0,0,-1.3627,-1.3652,-1.3626,-1.3684,-1.3685,-1.3651,-1.3662,-1.3633,-1.363,-1.3629,-1.3614,-1.3613,-1.3632,-1.3646,-1.3662,-1.3734,-1.3729,-1.377,-1.3784,-1.3796,-1.3805,-1.3841,-1.3859,-1.3672,-1.3672,-1.3672,0,0,-1.3684,-1.3671,-1.369,-1.3702,-1.3697,-1.3725,-1.3651,-1.3683,-1.3703,-1.3634,-1.3678,-1.3668,-1.3664,-1.3724,-1.375,-1.3719,-1.3856,-1.3806,-1.3816,-1.3818,-1.3851,-1.3869,-1.3885,-1.3677,-1.3676,-1.3675,0,0,-1.3801,-1.3795,-1.3842,-1.3839,-1.3834,-1.3811,-1.3823,-1.3807,-1.3797,-1.3841,-1.379,-1.3813,-1.3848,-1.3846,-1.3851,-1.397,-1.3929,-1.3977,-1.4051,-1.4088,-1.4102,-1.4115,-1.4156,-1.4172,-1.3985,-1.3985,-1.3986,0,-1.3873,-1.3911,-1.3871,-1.3906,-1.3913,-1.3852,-1.39,-1.3899,-1.39,-1.3906,-1.3871,-1.3913,-1.3906,-1.3965,-1.3994,-1.4,-1.4011,-1.3977,-1.4103,-1.4116,-1.4127,-1.4166,-1.4182,-1.3991,-1.399,-1.399,-1.3989,0,-1.3999,-1.4027,-1.4066,-1.4068,-1.4079,-1.4121,-1.4086,-1.4103,-1.4074,-1.4055,-1.4101,-1.4091,-1.4104,-1.4116,-1.4088,-1.4172,-1.4152,-1.4112,-1.4049,-1.4151,-1.4187,-1.4202,-1.3999,-1.3997,-1.3995,-1.3994,0,0,-1.4172,-1.4152,-1.4167,-1.4167,-1.4157,-1.4178,-1.4217,-1.423,-1.4244,-1.4247,-1.4278,-1.431,-1.4272,-1.4277,-1.4248,-1.4281,-1.4375,-1.4236,-1.4235,-1.4261,-1.4465,-1.4494,-1.4512,-1.4349,-1.4351,-1.4353,-1.4465,0,-1.4284,-1.4349,-1.4314,-1.4383,-1.4409,-1.4352,-1.4386,-1.4384,-1.4369,-1.4388,-1.4371,-1.4393,-1.4342,-1.4345,-1.4374,-1.4357,-1.4415,-1.4349,-1.4376,-1.4378,-1.4377,-1.4531,-1.4562,-1.4667,-1.4479,-1.4481,-1.4483,0,-1.4423,-1.4431,-1.4503,-1.4489,-1.4498,-1.4529,-1.4538,-1.4558,-1.4554,-1.4541,-1.4547,-1.4511,-1.4548,-1.4489,-1.454,-1.4496,-1.4505,-1.4499,-1.4502,-1.4501,-1.4435,-1.4533,-1.47,-1.4715,-1.4504,-1.4503,-1.4501,0,-1.454,-1.457,-1.4617,-1.4619,-1.4603,-1.4627,-1.4621,-1.4615,-1.4625,-1.4633,-1.4639,-1.4652,-1.4659,-1.467,-1.4639,-1.4599,-1.4694,-1.4632,-1.4683,-1.4684,-1.4704,-1.4702,-1.4873,-1.4714,-1.4713,-1.4713,-1.4713,0,-1.4667,-1.4713,-1.4669,-1.4698,-1.4748,-1.4708,-1.4759,-1.4747,-1.4743,-1.4768,-1.4721,-1.4746,-1.4704,-1.4725,-1.4702,-1.4747,-1.4751,-1.474,-1.4733,-1.4743,-1.4745,-1.4747,-1.4739,-1.4717,-1.4716,-1.4715,-1.4715,0,-1.4806,-1.4778,-1.4825,-1.4807,-1.4804,-1.4841,-1.4826,-1.4852,-1.4834,-1.4867,-1.4872,-1.4844,-1.4866,-1.4837,-1.4856,-1.484,-1.4902,-1.4885,-1.4903,-1.4897,-1.4949,-1.4944,-1.5126,-1.5147,-1.4976,-1.4978,-1.4979,0,-1.4888,-1.4922,-1.4908,-1.4921,-1.4919,-1.4942,-1.4952,-1.4915,-1.4927,-1.4927,-1.4953,-1.4971,-1.4984,-1.5022,-1.5003,-1.5018,-1.5,-1.5063,-1.5002,-1.5011,-1.4999,-1.4996,-1.4999,-1.5075,-1.5077,-1.5078,-1.508,0,-1.5036,-1.5021,-1.5037,-1.5049,-1.5062,-1.5069,-1.5073,-1.5087,-1.5049,-1.5065,-1.5087,-1.5097,-1.5118,-1.5137,-1.5147,-1.5141,-1.5104,-1.51,-1.5112,-1.5121,-1.513,-1.5124,-1.4935,-1.5095,-1.5093,-1.5092,-1.5091,-1.5091,-1.5147,-1.5174,-1.5169,-1.5188,-1.5188,-1.5193,-1.5216,-1.5201,-1.5219,-1.5232,-1.521,-1.5238,-1.5234,-1.5244,-1.5244,-1.5265,-1.5238,-1.5256,-1.526,-1.5265,-1.5272,-1.5129,-1.5267,-1.5267,-1.5266,-1.5266,-1.5265,0,-1.5291,-1.5285,-1.5304,-1.5311,-1.5326,-1.5291,-1.5294,-1.5309,-1.5334,-1.5334,-1.5348,-1.5374,-1.5392,-1.5376,-1.5391,-1.5411,-1.5394,-1.5416,-1.5413,-1.5412,-1.5296,-1.5283,-1.5429,-1.5429,-1.5429,-1.5429,-1.5429,-1.5429,-1.5368,-1.5412,-1.5396,-1.544,-1.5434,-1.546,-1.5465,-1.547,-1.5469,-1.55,-1.5515,-1.5504,-1.5498,-1.5512,-1.5527,-1.5522,-1.5529,-1.5557,-1.5545,-1.5437,-1.5421,-1.5405,-1.5392,-1.5559,-1.5559,-1.5659,-1.566,-1.566]},{"header":{"parameterUnit":"m.s-1","parameterCategory":1,"la1":30.2991,"la2":30.254,"lo1":-89.0895,"lo2":-89.0444,"dy":0.0017,"dx":0.0017,"nx":28,"ny":28,"refTime":"2026-02-09T03:00:00:Z","depth":0,"parameterNumber":3,"parameterNumberName":"V-component_of_WINDS"},"data":[0,0,0,0,0,0,0,0,0,0,0,0,0,0,0,0,0,0,0,0,0,0,0,0,0,0,0,0,0,0,0,0,0,0,0,0,0,0,0,0,0,0,0,0,0,0,0,0,0,0,0,0,0,0,0,0,0,0,1.2758,1.2757,0,1.273,1.2729,1.2729,1.2811,1.2813,1.2816,1.2818,1.2786,1.2783,1.278,0,0,0,0,0,0,0,0,0,0,0,0,0,1.288,1.2877,1.2758,1.2757,1.2757,1.273,1.2729,1.2729,1.281,1.2814,1.2817,1.2819,1.2787,1.2783,1.278,0,0,0,0,0,0,0,0,0,0,0,0,0,1.2836,1.2876,1.2758,1.2794,1.2797,1.273,1.2729,1.2729,1.281,1.2814,1.2817,1.2821,1.2788,1.2784,1.2779,1.2674,0,0,1.2764,1.2762,0,0,0,0,0,0,0,0,1.2839,1.2832,1.2789,1.2792,1.2795,1.2778,1.2761,1.271,1.2809,1.2805,1.2818,1.2823,1.278,1.2776,1.2763,1.2672,1.2671,1.2764,1.2761,1.2759,1.2758,0,0,0,0,0,0,0,1.2842,1.2834,1.2747,1.2789,1.2792,1.2812,1.281,1.2752,1.2771,1.2806,1.2812,1.2807,1.2782,1.2767,1.2762,1.267,1.2764,1.276,1.2757,1.2755,1.2494,1.249,0,0,0,0,0,0,1.284,1.2836,1.2747,1.2746,1.2827,1.2806,1.2804,1.2779,1.2772,1.2775,1.2804,1.2811,1.2773,1.2768,1.2761,1.2639,1.2759,1.2754,1.2752,1.2498,1.2493,1.2489,0,0,0,0,0,0,1.2843,1.2832,1.2749,1.2792,1.2783,1.28,1.2772,1.2777,1.2762,1.2771,1.2775,1.2785,1.2776,1.2768,1.2696,1.2639,1.2752,1.2748,1.2503,1.2497,1.2491,1.2392,0,0,0,0,0,0,1.2846,1.2832,1.2792,1.2791,1.2781,1.2683,1.2768,1.2774,1.2754,1.2763,1.2754,1.2756,1.2778,1.2702,1.2691,1.2634,1.2744,1.2508,1.25,1.2493,1.24,1.2383,1.2368,0,0,0,0,0,1.285,1.2764,1.279,1.2779,1.2731,1.268,1.2674,1.2702,1.2749,1.2709,1.2716,1.2757,1.2647,1.2694,1.2682,1.2623,1.2512,1.2502,1.2493,1.2407,1.2386,1.2369,0,0,0,0,0,0,1.2757,1.2765,1.2793,1.2705,1.2691,1.2694,1.2644,1.2679,1.265,1.266,1.2695,1.2693,1.2613,1.2611,1.2663,1.2522,1.2587,1.2575,1.2526,1.2506,1.249,1.2492,1.274,0,0,0,0,0,1.2726,1.2684,1.2693,1.2614,1.2606,1.2626,1.2605,1.2628,1.2615,1.2609,1.261,1.2595,1.2558,1.2532,1.2498,1.2401,1.24,1.2354,1.2338,1.2325,1.2314,1.2264,1.2244,1.2459,1.2459,1.2459,0,0,1.2662,1.2661,1.2632,1.2596,1.2588,1.2543,1.2621,1.257,1.2537,1.2601,1.2533,1.2533,1.2519,1.2434,1.2396,1.2429,1.2255,1.2314,1.2303,1.2299,1.2252,1.2232,1.2214,1.2453,1.2454,1.2455,0,0,1.2522,1.2517,1.2452,1.2443,1.2431,1.2446,1.243,1.2428,1.2431,1.2364,1.2411,1.2373,1.2307,1.2295,1.228,1.2139,1.2176,1.2127,1.2044,1.1994,1.1977,1.1963,1.1913,1.1894,1.2116,1.2116,1.2116,0,1.2443,1.2379,1.2413,1.236,1.2343,1.2401,1.2335,1.2324,1.2301,1.2288,1.2326,1.2246,1.224,1.2154,1.212,1.2106,1.2089,1.2128,1.1977,1.1963,1.1949,1.1902,1.1883,1.211,1.2111,1.2111,1.2112,0,1.2283,1.2238,1.2187,1.2165,1.2142,1.2082,1.2107,1.208,1.2106,1.2116,1.2047,1.2043,1.201,1.1991,1.2015,1.1908,1.193,1.1972,1.2038,1.1922,1.1879,1.1861,1.2102,1.2104,1.2106,1.2107,0,0,1.2082,1.2082,1.2063,1.2054,1.2047,1.2012,1.1956,1.1925,1.1901,1.1884,1.1837,1.1781,1.1821,1.1805,1.1828,1.1785,1.1674,1.1832,1.1833,1.1803,1.1558,1.1526,1.1504,1.1699,1.1696,1.1693,1.1559,0,1.1945,1.185,1.188,1.1783,1.1742,1.1798,1.1749,1.1738,1.1747,1.1713,1.1723,1.1683,1.1738,1.1729,1.1689,1.1696,1.1625,1.1706,1.1656,1.1654,1.1657,1.1481,1.1447,1.132,1.1542,1.1539,1.1537,0,1.1772,1.175,1.1649,1.1651,1.1635,1.159,1.1565,1.1532,1.1522,1.1532,1.1515,1.1548,1.1492,1.156,1.1484,1.1539,1.152,1.1521,1.1517,1.1513,1.1588,1.1472,1.128,1.1261,1.151,1.1512,1.1514,0,1.1636,1.1581,1.1514,1.1505,1.1505,1.1472,1.147,1.1465,1.1445,1.1423,1.1411,1.1382,1.1366,1.1343,1.1367,1.1414,1.1288,1.1358,1.1294,1.1293,1.1264,1.1266,1.1066,1.1253,1.1253,1.1253,1.1254,0,1.1479,1.1415,1.1453,1.1412,1.1343,1.1379,1.1309,1.1313,1.1308,1.1268,1.1314,1.1276,1.1311,1.1276,1.1295,1.123,1.1222,1.1228,1.1234,1.1224,1.1223,1.1212,1.1221,1.1248,1.1249,1.125,1.1251,0,1.1315,1.1337,1.1269,1.1275,1.1275,1.1224,1.1229,1.1191,1.1204,1.1154,1.1144,1.1164,1.1125,1.1148,1.1108,1.1121,1.1036,1.1054,1.104,1.1045,1.098,1.0986,1.0766,1.0739,1.0943,1.0941,1.0939,0,1.1213,1.1166,1.1168,1.1146,1.1141,1.1104,1.1085,1.1119,1.1097,1.1083,1.1047,1.1013,1.0987,1.0923,1.0934,1.0904,1.0921,1.0847,1.0917,1.0909,1.092,1.0923,1.0919,1.0832,1.0829,1.0827,1.0826,0,1.103,1.1045,1.1016,1.0991,1.0967,1.0949,1.0935,1.0914,1.0948,1.092,1.0883,1.0863,1.0824,1.0789,1.0765,1.0762,1.0799,1.0804,1.0788,1.0777,1.0771,1.0774,1.1001,1.0808,1.081,1.0811,1.0812,1.0813,1.0894,1.0856,1.0852,1.0818,1.0812,1.0798,1.0763,1.0773,1.0742,1.0714,1.0736,1.0691,1.0684,1.0655,1.0648,1.0613,1.0643,1.062,1.0614,1.0607,1.0599,1.0777,1.0609,1.0609,1.061,1.061,1.0611,0,1.0714,1.0715,1.0685,1.0664,1.0638,1.0678,1.0664,1.0639,1.06,1.0591,1.0566,1.0523,1.049,1.0499,1.047,1.0441,1.0457,1.0432,1.0434,1.0433,1.0573,1.059,1.0419,1.0419,1.0419,1.0419,1.0419,1.042,1.0618,1.0555,1.0569,1.0503,1.0505,1.0462,1.0451,1.0439,1.0432,1.0383,1.0357,1.0364,1.0362,1.0333,1.0306,1.0309,1.0296,1.0265,1.0274,1.0404,1.0423,1.0441,1.0458,1.0262,1.0261,1.0138,1.0136,1.0135]}]]